Location: Fort Wayne
(41.1310°N, 85.1290°W)
Time: 23:20:13
(UTC-05:00)

Tiros 1 despin weight - Visible Passes

Search period start: 20 January 2017 00:00
Search period end: 30 January 2017 00:00
Orbit: 595 x 644 km, 48.2° (Epoch: 19 January)

Date Brightness Start Highest point End Pass type
(mag) Time Alt. Az. Time Alt. Az. Time Alt. Az.
20 Jan ? 05:57:50 49° NNW 05:57:50 49° NNW 06:02:06 10° ENE visible
21 Jan ? 04:37:11 13° ENE 04:37:11 13° ENE 04:37:39 10° ENE visible
21 Jan ? 06:14:17 35° NNW 06:14:59 38° NNW 06:19:15 10° ENE visible
22 Jan ? 04:53:36 17° NE 04:53:36 17° NE 04:54:46 10° ENE visible
22 Jan ? 06:30:41 25° NW 06:32:23 33° N 06:36:31 10° ENE visible
23 Jan ? 05:09:58 23° NE 05:09:58 23° NE 05:11:52 10° ENE visible
23 Jan ? 06:47:03 18° NW 06:49:49 34° N 06:53:57 10° ENE visible
24 Jan ? 05:26:18 28° NNE 05:26:18 28° NNE 05:29:05 10° ENE visible
24 Jan ? 07:03:24 13° NW 07:07:12 39° NNE 07:11:28 10° E visible
25 Jan ? 05:42:38 33° N 05:42:38 33° N 05:46:25 10° ENE visible
25 Jan ? 07:20:02 10° WNW 07:24:31 53° NNE 07:28:56 10° E visible
26 Jan ? 05:58:58 34° NNW 05:59:41 36° N 06:03:54 10° ENE visible
27 Jan ? 04:38:13 14° ENE 04:38:13 14° ENE 04:38:56 10° ENE visible
27 Jan ? 06:15:18 30° NW 06:17:03 44° NNE 06:21:24 10° E visible
28 Jan ? 04:54:35 20° NE 04:54:35 20° NE 04:56:21 10° ENE visible
28 Jan ? 06:31:40 24° NW 06:34:19 64° NNE 06:38:49 10° ESE visible
29 Jan ? 05:10:59 31° NE 05:10:59 31° NE 05:13:51 10° E visible
29 Jan ? 06:48:04 18° WNW 06:51:27 80° SSW 06:55:58 10° SE visible
